Find OneWeb SL0115

NORAD ID: 48042 Int'l Des: 2021-025 Owner: ONEWEBN Country: UK Constellation: oneweb operational
LEOCIRCULARPOLARONEWEB_TYPE

現在のビュー

3D地球を読み込み中...

About OneWeb SL0115

OneWeb SL0115 (NORAD 48042) is a oneweb constellation satellite launched Mar 25, 2021 by ONEWEBN of UK. It operates in LEO, CIRCULAR, POLAR, ONEWEB_TYPE orbit with a mass of 148.00 kg.

OneWeb SL0115について

説明を読み込み中...

次回通過

Passes for default location (London). Set your location on the main map for personalized predictions.

高度履歴

Loading altitude history...

軌道要素

1 48042U 21025A 26194.83786428 -.00000458 00000-0 -12901-2 0 9990
2 48042 87.8980 314.9207 0001824 101.8461 258.2873 13.13463383257095
Epoch: Jul 13, 2026 • Age: 19 hours

現在のステータス

高度 1218.5 km
遠地点 / 近地点 N/A
速度 7.24 km/s
衛星直下点 -22.43°S, 28.15°W
打ち上げ日 Mar 25, 2021
運用期間 5.3 years
タイプ internet

技術仕様

分類 Payload
質量 148.00 kg
乾燥質量 140.00 kg
総質量 148.00 kg
長さ 1.30 m
直径 1.00 m
スパン 5.00 m
形状 Trapezoid+2 pan
製造者 ONEWUS
バスタイプ ARROW
フェーズステータス In Orbit
所有者/国 ONEWEBN/UK

Most Searched